STARLINK-2144, 47734

Orbit data source: Space-Track

STARLINK-2144, 47734 is a payload satellite owned by SpaceX/Seattle (US) in LEO that was launched on Thu, 04 Mar 2021 UTC via an FALCON 9 launch vehicle from the Air Force Eastern Test Range (AFETR). Payload-class satellites include a variety of spacecraft equipped with specific instruments for various scientific and technological missions. These include communications satellites like Starlink; space stations such as the ISS; scientific satellites like the Hubble; Earth observation satellites from companies like Planet Labs, Umbra, and HawkEye 360; GPS; miniature CubeSats for education and research; and military/defense satellites.

Loading next visibility...
Identifier
47734, 2021-017N
Orbit
LEO
Country
Flag of USUS
Related business
Manufacturer
SpaceX/Seattle
Mission
Operational Commercial Communications
Bus & Motor
STARLINK, Unknown motor
Mass
260 kg wet, ~248 kg dry
Launch date (UTC)
2021-03-04 (5 years ago)
Launch vehicle
FALCON 9
Launch site
Air Force Eastern Test Range (AFETR)
Object type
Payload
Rocket body
Debris
Shape & HBR
Box + 1 Pan, 10.1 m
Radar Cross Section
13.562 m², Large (>1 m²)

Expand to show TLE details & history
Last TLE update: 10 hours ago

TLE from 10 hours ago
0 STARLINK-2144
1 47734U 21017N   25346.95958704 -.00005782  00000-0 -36976-3 0  9991
2 47734  53.0537 240.9649 0001404  90.4535 269.6615 15.06382713264675
Epoch: 2025-12-12T23:01Z
TLE epoch observation values (Epoch: 2025-12-12T23:01:48.320Z)
Latitude
Longitude
173.61984°
Altitude
548.149 km
Speed
7.589 km/s
True Right ascension
16h 03m 51s
True Declination
0° 00' 00"
Sunlit
Object was in daylight at epoch
Visualization orbit readout
Latitude
Unknown
Longitude
Unknown
Altitude
Unknown
Speed
Unknown
Apparent Right ascension
Unknown
Apparent Declination
Unknown
Sunlit
N/A
Visualization observer readout
Local Sidereal Time
07:26:32
Azimuth
Unknown
Elevation
Unknown
Doppler factor
Unknown
Orbital elements
Apogee altitude
548.508 km
Perigee altitude
546.563 km
Semi-major axis
6,925.672 km
Eccentricity
0.00014
Inclination
53.0537°
RAAN
240.9649°
Arg. of periapsis
90.4535°
True anomaly
269.64541°
Mean anomaly
269.6615°
Eccentric anomaly
269.65346°
Mean motion
3.76574 °/min
Orbital period
95.6 mins
BSTAR
-0.00036976
Loading maneuver chart data...
Computing Atmospheric mass density...

Documentation

Showing up to 5 results
|